Location: Couloutre
(47.4081°N, 3.2259°E)
Time: 23:19:28
(UTC+00:00)

STARLINK-70 - Pass Details

Date: 27 February 2020
Orbit: 529 x 530 km, 53.0° (Epoch: 05 April)

Event Time Altitude Azimuth Distance (km) Brightness Sun altitude
Rises 19:07:48 0° 288° (WNW) 2,671 8.7 -17.6°
Reaches altitude 10° 19:10:08 10° 297° (WNW) 1,781 7.3 -18.0°
Maximum altitude 19:13:55 37° 6° (N) 834 4.5 -18.6°
Enters shadow 19:15:01 31° 42° (NE) 950 4.5 -18.8°
